QPF
0.02 0.03 0.05 0.06 0.05 0.04 0.04 0.03 0.02 0.01 0.01 0.01 0.01 0.01 0.01 0.01 0.01 0.01 0.01 0.01 0.01 0.01 0.01 0.01 0.01 0.01 0.01 0.01 0.01 0.01 0.00 0.00 0.00 0.00 0.00 0.00 0.00 0.00 0.00 0.00 0.00 0.00 0.00
0.03 0.03 0.05 0.05 0.05 0.05 0.05 0.04 0.03 0.01 0.01 0.01 0.01 0.01 0.02 0.01 0.01 0.01 0.01 0.01 0.01 0.01 0.01 0.01 0.01 0.00 0.00 0.00 0.00 0.00 0.00 0.00 0.00 0.00 0.00 0.00 0.00 0.00 0.00 0.00 0.00 0.00 0.00
0.03 0.04 0.04 0.04 0.05 0.06 0.05 0.03 0.02 0.01 0.01 0.01 0.02 0.02 0.01 0.01 0.01 0.01 0.01 0.01 0.01 0.00 0.00 0.00 0.00 0.00 0.00 0.00 0.00 0.00 0.00 0.00 0.00 0.00 0.00 0.00 0.00 0.00 0.00 0.00 0.00 0.00 0.00
0.02 0.03 0.04 0.04 0.05 0.06 0.04 0.02 0.02 0.02 0.02 0.01 0.01 0.01 0.01 0.01 0.01 0.00 0.00 0.00 0.00 0.00 0.00 0.00 0.00 0.00 0.00 0.00 0.00 0.00 0.00 0.00 0.00 0.00 0.00 0.01 0.01 0.01 0.01 0.00 0.00 0.00 0.00
0.02 0.03 0.04 0.04 0.04 0.04 0.03 0.02 0.01 0.01 0.01 0.01 0.01 0.01 0.00 0.00 0.00 0.00 0.00 0.00 0.00 0.00 0.00 0.00 0.00 0.00 0.00 0.00 0.00 0.00 0.00 0.00 0.00 0.00 0.00 0.00 0.00 0.00 0.01 0.01 0.00 0.00 0.00
0.02 0.03 0.03 0.03 0.03 0.03 0.02 0.01 0.01 0.00 0.00 0.00 0.00 0.00 0.00 0.00 0.00 0.00 0.00 0.00 0.00 0.00 0.00 0.00 0.00 0.00 0.00 0.00 0.00 0.00 0.00 0.00 0.00 0.00 0.00 0.00 0.00 0.00 0.00 0.01 0.00 0.00 0.00
0.02 0.03 0.03 0.02 0.02 0.02 0.01 0.01 0.00 0.00 0.00 0.00 0.00 0.00 0.00 0.00 0.00 0.00 0.00 0.00 0.00 0.00 0.00 0.00 0.00 0.00 0.00 0.00 0.00 0.00 0.00 0.00 0.00 0.00 0.00 0.00 0.00 0.00 0.00 0.01 0.01 0.00 0.00
0.03 0.04 0.03 0.02 0.01 0.01 0.01 0.01 0.00 0.00 0.00 0.00 0.00 0.00 0.00 0.00 0.00 0.00 0.00 0.00 0.00 0.00 0.00 0.00 0.00 0.00 0.00 0.00 0.00 0.00 0.00 0.00 0.00 0.00 0.00 0.00 0.00 0.00 0.00 0.00 0.01 0.01 0.00
0.04 0.04 0.03 0.02 0.02 0.02 0.01 0.01 0.00 0.00 0.00 0.00 0.00 0.00 0.00 0.00 0.00 0.00 0.00 0.00 0.00 0.00 0.00 0.00 0.00 0.00 0.00 0.00 0.00 0.00 0.00 0.00 0.00 0.00 0.00 0.00 0.00 0.00 0.00 0.00 0.01 0.02 0.02
0.04 0.05 0.04 0.03 0.02 0.01 0.00 0.00 0.00 0.00 0.00 0.00 0.00 0.00 0.00 0.00 0.00 0.00 0.00 0.00 0.00 0.00 0.00 0.00 0.00 0.00 0.00 0.00 0.00 0.00 0.00 0.00 0.00 0.00 0.00 0.00 0.00 0.00 0.00 0.00 0.00 0.01 0.03
0.06 0.06 0.04 0.03 0.02 0.01 0.00 0.00 0.00 0.00 0.00 0.00 0.00 0.00 0.00 0.00 0.00 0.00 0.00 0.00 0.00 0.00 0.00 0.00 0.00 0.00 0.00 0.00 0.00 0.00 0.00 0.00 0.00 0.00 0.00 0.00 0.00 0.00 0.00 0.00 0.00 0.01 0.02
0.08 0.06 0.04 0.03 0.02 0.01 0.01 0.00 0.00 0.00 0.00 0.00 0.00 0.00 0.00 0.00 0.00 0.00 0.00 0.00 0.00 0.00 0.00 0.00 0.00 0.00 0.00 0.00 0.00 0.00 0.00 0.00 0.00 0.00 0.00 0.00 0.00 0.00 0.00 0.00 0.00 0.01 0.02
0.06 0.04 0.04 0.04 0.03 0.02 0.01 0.01 0.01 0.00 0.00 0.00 0.00 0.00 0.00 0.00 0.00 0.00 0.00 0.00 0.00 0.00 0.00 0.00 0.00 0.00 0.00 0.00 0.00 0.00 0.00 0.00 0.00 0.00 0.00 0.00 0.00 0.00 0.00 0.01 0.01 0.02 0.02
0.06 0.05 0.05 0.06 0.05 0.05 0.05 0.03 0.01 0.00 0.00 0.00 0.00 0.00 0.00 0.00 0.00 0.00 0.00 0.00 0.00 0.00 0.00 0.00 0.00 0.00 0.00 0.00 0.00 0.00 0.00 0.00 0.00 0.00 0.00 0.00 0.00 0.00 0.01 0.01 0.02 0.02 0.02
0.08 0.09 0.10 0.11 0.11 0.09 0.06 0.03 0.01 0.00 0.00 0.00 0.00 0.00 0.00 0.00 0.00 0.00 0.00 0.00 0.00 0.00 0.00 0.00 0.00 0.00 0.00 0.00 0.00 0.00 0.00 0.00 0.00 0.00 0.00 0.00 0.00 0.01 0.02 0.02 0.02 0.02 0.02
0.14 0.15 0.15 0.14 0.11 0.08 0.04 0.01 0.00 0.00 0.00 0.00 0.00 0.00 0.00 0.00 0.00 0.00 0.00 0.00 0.00 0.00 0.00 0.00 0.00 0.00 0.00 0.00 0.00 0.00 0.00 0.00 0.00 0.00 0.00 0.00 0.00 0.00 0.00 0.01 0.01 0.02 0.02
0.16 0.15 0.13 0.11 0.09 0.06 0.02 0.00 0.00 0.00 0.00 0.00 0.00 0.00 0.00 0.00 0.00 0.00 0.00 0.00 0.00 0.00 0.00 0.00 0.00 0.00 0.00 0.00 0.00 0.00 0.00 0.00 0.00 0.00 0.00 0.00 0.00 0.00 0.00 0.00 0.00 0.01 0.03
0.15 0.12 0.10 0.09 0.06 0.03 0.01 0.00 0.00 0.00 0.00 0.00 0.00 0.00 0.00 0.00 0.00 0.00 0.00 0.00 0.00 0.00 0.00 0.00 0.00 0.00 0.00 0.00 0.00 0.00 0.00 0.00 0.00 0.00 0.00 0.00 0.00 0.00 0.01 0.01 0.01 0.02 0.05
0.12 0.10 0.08 0.06 0.04 0.01 0.00 0.00 0.00 0.00 0.00 0.00 0.00 0.00 0.00 0.00 0.00 0.00 0.00 0.00 0.00 0.00 0.00 0.00 0.00 0.00 0.00 0.00 0.00 0.00 0.00 0.00 0.00 0.00 0.00 0.00 0.00 0.00 0.01 0.02 0.03 0.05 0.10
0.08 0.07 0.06 0.04 0.02 0.01 0.00 0.00 0.00 0.00 0.00 0.00 0.00 0.00 0.00 0.00 0.00 0.00 0.00 0.00 0.00 0.00 0.00 0.00 0.00 0.00 0.00 0.00 0.00 0.00 0.00 0.00 0.00 0.00 0.00 0.00 0.00 0.01 0.02 0.03 0.06 0.10 0.15
0.09 0.08 0.05 0.02 0.00 0.00 0.00 0.00 0.00 0.00 0.00 0.00 0.00 0.00 0.00 0.00 0.00 0.00 0.00 0.00 0.00 0.00 0.00 0.00 0.00 0.00 0.00 0.00 0.00 0.00 0.00 0.01 0.01 0.01 0.01 0.01 0.01 0.02 0.04 0.07 0.10 0.14 0.18
0.10 0.06 0.02 0.00 0.00 0.00 0.00 0.00 0.00 0.00 0.00 0.00 0.00 0.00 0.00 0.00 0.00 0.00 0.00 0.00 0.00 0.00 0.00 0.00 0.00 0.00 0.00 0.00 0.00 0.00 0.00 0.01 0.02 0.03 0.03 0.02 0.03 0.04 0.08 0.12 0.16 0.19 0.18
0.05 0.02 0.00 0.00 0.00 0.00 0.00 0.00 0.00 0.00 0.00 0.00 0.00 0.00 0.00 0.00 0.00 0.00 0.00 0.00 0.00 0.00 0.00 0.00 0.00 0.00 0.00 0.00 0.00 0.00 0.00 0.01 0.02 0.03 0.03 0.03 0.05 0.08 0.13 0.21 0.24 0.23 0.18
0.01 0.00 0.00 0.00 0.00 0.00 0.00 0.00 0.00 0.00 0.00 0.00 0.00 0.00 0.00 0.00 0.00 0.00 0.00 0.00 0.00 0.00 0.00 0.00 0.00 0.00 0.00 0.00 0.00 0.01 0.01 0.01 0.01 0.01 0.02 0.04 0.08 0.13 0.20 0.26 0.28 0.25 0.19
0.00 0.00 0.00 0.00 0.00 0.00 0.00 0.00 0.00 0.00 0.00 0.00 0.00 0.00 0.00 0.00 0.00 0.00 0.00 0.00 0.00 0.00 0.01 0.01 0.01 0.01 0.01 0.01 0.01 0.02 0.02 0.02 0.02 0.01 0.02 0.04 0.08 0.15 0.20 0.23 0.24 0.22 0.17
0.00 0.00 0.00 0.00 0.00 0.00 0.00 0.00 0.00 0.00 0.00 0.00 0.00 0.00 0.00 0.00 0.00 0.00 0.00 0.00 0.00 0.00 0.00 0.01 0.01 0.01 0.01 0.01 0.01 0.02 0.03 0.03 0.03 0.03 0.04 0.07 0.10 0.15 0.19 0.20 0.20 0.17 0.13
MSLP
1014.21 1014.67 1015.08 1015.40 1015.61 1015.73 1015.79 1015.84 1015.93 1016.10 1016.36 1016.70 1017.10 1017.51 1017.91 1018.24 1018.49 1018.67 1018.77 1018.83 1018.88 1018.94 1019.02 1019.13 1019.24 1019.33 1019.39 1019.38 1019.31 1019.18 1019.00 1018.79 1018.59 1018.42 1018.28 1018.17 1018.09 1018.02 1017.92 1017.79 1017.62 1017.40 1017.14
1014.55 1015.08 1015.54 1015.89 1016.12 1016.23 1016.28 1016.32 1016.41 1016.59 1016.87 1017.24 1017.67 1018.11 1018.51 1018.83 1019.05 1019.17 1019.22 1019.24 1019.25 1019.28 1019.36 1019.46 1019.58 1019.68 1019.73 1019.72 1019.64 1019.49 1019.29 1019.08 1018.87 1018.69 1018.54 1018.41 1018.30 1018.16 1018.00 1017.78 1017.51 1017.19 1016.84
1014.64 1015.26 1015.81 1016.23 1016.50 1016.65 1016.71 1016.76 1016.86 1017.06 1017.37 1017.77 1018.23 1018.68 1019.09 1019.39 1019.58 1019.66 1019.66 1019.63 1019.60 1019.60 1019.65 1019.75 1019.86 1019.96 1020.02 1020.01 1019.93 1019.79 1019.60 1019.40 1019.21 1019.03 1018.88 1018.73 1018.57 1018.37 1018.12 1017.79 1017.40 1016.97 1016.53
1014.51 1015.25 1015.90 1016.42 1016.77 1016.98 1017.08 1017.16 1017.29 1017.51 1017.84 1018.26 1018.74 1019.20 1019.60 1019.89 1020.05 1020.10 1020.06 1019.99 1019.92 1019.88 1019.91 1019.98 1020.08 1020.17 1020.23 1020.23 1020.17 1020.05 1019.90 1019.73 1019.56 1019.41 1019.26 1019.09 1018.89 1018.62 1018.26 1017.83 1017.32 1016.77 1016.23
1014.25 1015.11 1015.89 1016.53 1016.98 1017.26 1017.43 1017.56 1017.71 1017.95 1018.29 1018.72 1019.19 1019.65 1020.04 1020.32 1020.46 1020.48 1020.41 1020.30 1020.19 1020.12 1020.11 1020.15 1020.22 1020.30 1020.36 1020.36 1020.33 1020.24 1020.13 1020.01 1019.88 1019.75 1019.61 1019.43 1019.18 1018.84 1018.40 1017.86 1017.24 1016.59 1015.96
1013.95 1014.94 1015.86 1016.62 1017.18 1017.56 1017.79 1017.96 1018.14 1018.38 1018.72 1019.13 1019.58 1020.02 1020.39 1020.65 1020.77 1020.78 1020.69 1020.56 1020.42 1020.32 1020.26 1020.26 1020.30 1020.35 1020.40 1020.41 1020.39 1020.34 1020.27 1020.19 1020.11 1020.01 1019.87 1019.68 1019.39 1018.99 1018.47 1017.84 1017.14 1016.41 1015.69
1013.71 1014.82 1015.87 1016.75 1017.43 1017.89 1018.20 1018.41 1018.60 1018.83 1019.14 1019.51 1019.92 1020.32 1020.66 1020.89 1021.00 1020.98 1020.88 1020.73 1020.57 1020.44 1020.35 1020.31 1020.31 1020.33 1020.35 1020.36 1020.35 1020.32 1020.28 1020.24 1020.19 1020.11 1019.98 1019.77 1019.45 1019.01 1018.44 1017.75 1016.99 1016.19 1015.43
1013.57 1014.79 1015.95 1016.95 1017.73 1018.29 1018.65 1018.90 1019.09 1019.30 1019.57 1019.88 1020.22 1020.56 1020.84 1021.03 1021.11 1021.09 1020.98 1020.81 1020.64 1020.48 1020.36 1020.29 1020.25 1020.23 1020.22 1020.21 1020.20 1020.18 1020.16 1020.14 1020.10 1020.03 1019.89 1019.67 1019.33 1018.86 1018.26 1017.54 1016.75 1015.93 1015.13
1013.54 1014.84 1016.10 1017.20 1018.08 1018.71 1019.14 1019.41 1019.61 1019.78 1019.98 1020.22 1020.48 1020.73 1020.94 1021.08 1021.12 1021.07 1020.95 1020.79 1020.61 1020.44 1020.29 1020.19 1020.12 1020.06 1020.02 1019.99 1019.97 1019.94 1019.92 1019.89 1019.85 1019.77 1019.62 1019.38 1019.02 1018.54 1017.92 1017.20 1016.41 1015.59 1014.79
1013.57 1014.95 1016.29 1017.47 1018.42 1019.13 1019.61 1019.91 1020.10 1020.24 1020.38 1020.53 1020.69 1020.84 1020.97 1021.03 1021.03 1020.95 1020.82 1020.65 1020.47 1020.30 1020.14 1020.02 1019.92 1019.85 1019.78 1019.73 1019.68 1019.63 1019.59 1019.54 1019.47 1019.36 1019.19 1018.92 1018.55 1018.06 1017.45 1016.74 1015.97 1015.17 1014.38
1013.60 1015.04 1016.44 1017.69 1018.71 1019.48 1020.01 1020.34 1020.53 1020.64 1020.72 1020.78 1020.84 1020.89 1020.92 1020.91 1020.84 1020.73 1020.58 1020.41 1020.24 1020.07 1019.92 1019.80 1019.69 1019.60 1019.52 1019.44 1019.37 1019.30 1019.22 1019.13 1019.02 1018.87 1018.66 1018.36 1017.96 1017.46 1016.86 1016.17 1015.43 1014.66 1013.90
1013.61 1015.09 1016.53 1017.81 1018.89 1019.71 1020.28 1020.65 1020.85 1020.94 1020.97 1020.96 1020.92 1020.88 1020.81 1020.72 1020.59 1020.44 1020.27 1020.10 1019.93 1019.78 1019.65 1019.54 1019.45 1019.36 1019.27 1019.18 1019.08 1018.97 1018.86 1018.72 1018.56 1018.35 1018.08 1017.73 1017.31 1016.79 1016.19 1015.52 1014.80 1014.06 1013.32
1013.58 1015.07 1016.52 1017.83 1018.93 1019.79 1020.41 1020.81 1021.02 1021.11 1021.10 1021.04 1020.93 1020.80 1020.65 1020.48 1020.30 1020.11 1019.92 1019.75 1019.60 1019.47 1019.37 1019.28 1019.21 1019.13 1019.05 1018.95 1018.83 1018.69 1018.53 1018.33 1018.10 1017.82 1017.49 1017.09 1016.61 1016.07 1015.46 1014.79 1014.09 1013.37 1012.65
1013.55 1015.03 1016.46 1017.76 1018.86 1019.74 1020.38 1020.81 1021.05 1021.14 1021.12 1021.02 1020.87 1020.67 1020.45 1020.23 1019.99 1019.78 1019.58 1019.41 1019.28 1019.18 1019.11 1019.06 1019.01 1018.95 1018.87 1018.77 1018.63 1018.46 1018.24 1017.98 1017.67 1017.32 1016.90 1016.43 1015.90 1015.32 1014.68 1014.00 1013.30 1012.58 1011.88
1013.59 1015.02 1016.39 1017.64 1018.71 1019.58 1020.23 1020.68 1020.94 1021.05 1021.03 1020.92 1020.74 1020.51 1020.25 1019.99 1019.72 1019.49 1019.28 1019.13 1019.01 1018.94 1018.90 1018.88 1018.86 1018.82 1018.75 1018.63 1018.47 1018.25 1017.97 1017.64 1017.25 1016.81 1016.31 1015.77 1015.17 1014.53 1013.85 1013.16 1012.44 1011.72 1011.02
1013.76 1015.10 1016.38 1017.55 1018.55 1019.38 1020.01 1020.47 1020.74 1020.87 1020.87 1020.77 1020.59 1020.35 1020.08 1019.80 1019.53 1019.28 1019.09 1018.94 1018.84 1018.80 1018.78 1018.78 1018.77 1018.73 1018.65 1018.52 1018.32 1018.04 1017.70 1017.29 1016.81 1016.28 1015.69 1015.06 1014.39 1013.70 1012.99 1012.27 1011.54 1010.83 1010.13
1014.12 1015.34 1016.50 1017.54 1018.45 1019.21 1019.80 1020.24 1020.52 1020.66 1020.69 1020.61 1020.45 1020.23 1019.97 1019.70 1019.43 1019.20 1019.02 1018.89 1018.80 1018.77 1018.76 1018.76 1018.75 1018.70 1018.59 1018.42 1018.16 1017.82 1017.40 1016.89 1016.32 1015.69 1015.01 1014.30 1013.57 1012.84 1012.09 1011.36 1010.64 1009.94 1009.28
1014.69 1015.77 1016.78 1017.68 1018.47 1019.12 1019.66 1020.06 1020.33 1020.48 1020.53 1020.49 1020.36 1020.18 1019.96 1019.72 1019.48 1019.27 1019.10 1018.98 1018.90 1018.86 1018.85 1018.83 1018.79 1018.70 1018.55 1018.31 1017.98 1017.56 1017.04 1016.44 1015.77 1015.04 1014.28 1013.50 1012.72 1011.95 1011.20 1010.48 1009.79 1009.14 1008.53
1015.44 1016.37 1017.21 1017.96 1018.62 1019.17 1019.62 1019.97 1020.22 1020.39 1020.46 1020.45 1020.37 1020.24 1020.07 1019.87 1019.68 1019.50 1019.35 1019.23 1019.14 1019.09 1019.04 1018.98 1018.89 1018.74 1018.51 1018.20 1017.78 1017.26 1016.64 1015.93 1015.16 1014.34 1013.51 1012.67 1011.85 1011.07 1010.35 1009.67 1009.05 1008.48 1007.97
1016.29 1017.07 1017.77 1018.37 1018.89 1019.33 1019.70 1020.00 1020.23 1020.39 1020.49 1020.52 1020.50 1020.42 1020.31 1020.16 1020.01 1019.86 1019.72 1019.60 1019.49 1019.40 1019.30 1019.18 1019.02 1018.79 1018.48 1018.07 1017.56 1016.94 1016.22 1015.41 1014.55 1013.65 1012.74 1011.86 1011.03 1010.27 1009.59 1009.00 1008.48 1008.03 1007.64
1017.16 1017.81 1018.38 1018.86 1019.26 1019.60 1019.90 1020.14 1020.35 1020.51 1020.63 1020.70 1020.73 1020.71 1020.66 1020.57 1020.45 1020.32 1020.19 1020.05 1019.92 1019.77 1019.61 1019.41 1019.17 1018.85 1018.45 1017.95 1017.34 1016.62 1015.81 1014.92 1013.97 1013.00 1012.05 1011.15 1010.32 1009.60 1008.99 1008.50 1008.11 1007.81 1007.58
1017.97 1018.52 1018.98 1019.35 1019.67 1019.93 1020.16 1020.37 1020.56 1020.72 1020.86 1020.97 1021.05 1021.09 1021.08 1021.04 1020.96 1020.84 1020.70 1020.54 1020.36 1020.15 1019.91 1019.63 1019.30 1018.90 1018.41 1017.82 1017.13 1016.34 1015.45 1014.49 1013.49 1012.48 1011.50 1010.59 1009.79 1009.12 1008.59 1008.22 1007.97 1007.84 1007.78
1018.66 1019.13 1019.51 1019.81 1020.06 1020.27 1020.46 1020.64 1020.82 1020.99 1021.15 1021.30 1021.42 1021.50 1021.54 1021.53 1021.47 1021.36 1021.20 1021.00 1020.76 1020.48 1020.17 1019.80 1019.39 1018.91 1018.35 1017.70 1016.96 1016.12 1015.19 1014.19 1013.15 1012.12 1011.13 1010.24 1009.47 1008.86 1008.43 1008.17 1008.06 1008.08 1008.19
1019.20 1019.62 1019.95 1020.21 1020.41 1020.59 1020.76 1020.92 1021.10 1021.28 1021.47 1021.65 1021.80 1021.92 1022.00 1022.01 1021.95 1021.83 1021.64 1021.39 1021.09 1020.73 1020.34 1019.90 1019.42 1018.88 1018.27 1017.59 1016.82 1015.96 1015.03 1014.03 1013.00 1011.98 1011.01 1010.14 1009.41 1008.86 1008.51 1008.35 1008.36 1008.52 1008.76
1019.61 1019.99 1020.29 1020.52 1020.71 1020.87 1021.03 1021.20 1021.38 1021.57 1021.78 1021.98 1022.17 1022.32 1022.41 1022.43 1022.37 1022.22 1021.99 1021.68 1021.31 1020.89 1020.42 1019.92 1019.38 1018.80 1018.17 1017.48 1016.73 1015.90 1014.99 1014.03 1013.04 1012.06 1011.13 1010.31 1009.63 1009.13 1008.84 1008.76 1008.86 1009.10 1009.44
1019.94 1020.28 1020.56 1020.79 1020.97 1021.13 1021.29 1021.46 1021.65 1021.86 1022.08 1022.31 1022.51 1022.67 1022.77 1022.79 1022.71 1022.53 1022.25 1021.89 1021.45 1020.96 1020.43 1019.87 1019.30 1018.70 1018.08 1017.42 1016.70 1015.93 1015.09 1014.21 1013.29 1012.38 1011.51 1010.74 1010.12 1009.66 1009.41 1009.37 1009.51 1009.79 1010.18
Thickness
5731 5727 5723 5718 5714 5709 5707 5703 5699 5695 5693 5689 5683 5677 5670 5665 5662 5658 5654 5650 5646 5642 5637 5632 5627 5622 5617 5612 5608 5603 5599 5594 5591 5589 5588 5587 5583 5579 5575 5572 5568 5566 5564
5720 5716 5712 5709 5705 5701 5698 5693 5689 5685 5682 5678 5673 5667 5660 5654 5649 5645 5642 5638 5634 5629 5624 5619 5613 5608 5602 5597 5592 5587 5582 5578 5573 5569 5567 5567 5567 5563 5561 5556 5553 5550 5548
5713 5708 5703 5699 5696 5693 5689 5684 5679 5675 5671 5667 5662 5656 5649 5643 5637 5633 5629 5625 5621 5616 5610 5605 5599 5593 5588 5582 5577 5571 5566 5561 5556 5552 5548 5546 5546 5544 5545 5543 5540 5536 5533
5708 5702 5696 5692 5688 5684 5679 5674 5669 5664 5659 5655 5650 5644 5637 5630 5624 5620 5617 5613 5608 5603 5597 5591 5585 5579 5573 5568 5562 5556 5551 5546 5541 5537 5533 5529 5527 5525 5529 5530 5527 5524 5522
5702 5696 5690 5684 5679 5675 5670 5665 5660 5654 5648 5644 5638 5632 5625 5619 5614 5610 5606 5601 5596 5590 5584 5577 5571 5565 5559 5553 5547 5542 5536 5532 5527 5523 5520 5517 5514 5511 5509 5515 5516 5514 5511
5696 5689 5682 5675 5670 5664 5660 5655 5650 5643 5638 5633 5628 5623 5616 5610 5605 5600 5595 5588 5582 5576 5570 5563 5556 5550 5544 5538 5533 5528 5524 5519 5514 5510 5506 5503 5501 5500 5496 5499 5502 5502 5502
5689 5681 5673 5666 5660 5655 5650 5644 5639 5632 5627 5623 5618 5613 5607 5601 5596 5590 5583 5577 5569 5562 5556 5549 5543 5537 5532 5526 5521 5516 5512 5507 5503 5499 5495 5491 5488 5485 5483 5483 5487 5488 5491
5682 5673 5665 5658 5652 5646 5639 5633 5627 5622 5617 5613 5607 5602 5597 5591 5586 5580 5573 5566 5558 5551 5545 5538 5532 5526 5520 5515 5510 5506 5501 5497 5492 5488 5483 5479 5476 5472 5468 5466 5467 5471 5477
5674 5664 5656 5649 5643 5636 5628 5622 5616 5610 5606 5602 5596 5591 5586 5581 5576 5569 5562 5555 5548 5541 5535 5527 5521 5515 5510 5505 5500 5495 5490 5485 5480 5475 5471 5467 5463 5459 5455 5451 5448 5449 5457
5665 5655 5646 5639 5632 5625 5617 5610 5604 5599 5594 5590 5585 5580 5575 5570 5565 5558 5551 5544 5537 5530 5522 5516 5510 5505 5499 5494 5489 5484 5479 5473 5468 5463 5458 5454 5450 5446 5442 5439 5436 5434 5437
5657 5646 5636 5628 5620 5612 5604 5597 5591 5586 5582 5577 5573 5568 5563 5559 5553 5546 5539 5532 5525 5518 5511 5505 5499 5494 5489 5483 5478 5472 5467 5461 5455 5450 5445 5441 5437 5434 5431 5428 5427 5426 5427
5649 5637 5627 5618 5609 5600 5592 5586 5580 5573 5569 5565 5561 5556 5551 5547 5541 5534 5528 5521 5514 5507 5501 5495 5489 5484 5479 5473 5466 5460 5454 5448 5442 5437 5432 5428 5425 5422 5420 5419 5419 5419 5420
5640 5628 5618 5609 5600 5590 5581 5573 5566 5560 5556 5553 5549 5545 5540 5535 5529 5523 5516 5510 5503 5496 5490 5484 5479 5474 5469 5462 5455 5448 5441 5435 5429 5424 5420 5417 5414 5413 5411 5411 5412 5413 5415
5633 5621 5610 5599 5589 5579 5570 5562 5555 5551 5546 5542 5538 5534 5529 5523 5517 5511 5505 5499 5492 5486 5481 5475 5470 5464 5458 5451 5444 5436 5429 5423 5417 5412 5408 5407 5405 5405 5405 5406 5408 5409 5410
5626 5615 5602 5590 5580 5569 5560 5552 5546 5542 5537 5532 5528 5523 5518 5512 5506 5501 5495 5489 5483 5478 5472 5466 5460 5453 5446 5439 5431 5424 5417 5411 5407 5403 5400 5399 5399 5401 5402 5404 5405 5405 5407
5619 5607 5594 5581 5571 5561 5550 5542 5537 5532 5527 5522 5518 5513 5507 5501 5496 5491 5486 5480 5474 5468 5462 5456 5449 5441 5434 5426 5418 5412 5406 5401 5397 5396 5395 5394 5395 5397 5398 5399 5401 5403 5406
5611 5598 5585 5573 5562 5551 5542 5534 5528 5523 5517 5512 5507 5502 5497 5492 5488 5483 5477 5472 5466 5459 5452 5444 5437 5428 5420 5413 5406 5400 5395 5391 5389 5389 5389 5390 5392 5393 5394 5397 5400 5404 5408
5596 5583 5571 5560 5549 5541 5533 5526 5520 5514 5509 5503 5498 5493 5489 5484 5480 5475 5469 5463 5456 5448 5440 5432 5424 5415 5408 5401 5395 5391 5387 5385 5385 5385 5385 5386 5389 5391 5393 5396 5401 5408 5414
5578 5567 5556 5547 5537 5530 5523 5517 5511 5505 5500 5494 5489 5485 5480 5476 5471 5466 5459 5451 5443 5434 5426 5418 5411 5403 5397 5391 5387 5383 5381 5381 5382 5384 5385 5387 5389 5392 5394 5398 5405 5412 5419
5558 5550 5541 5533 5527 5520 5514 5508 5503 5497 5491 5486 5481 5477 5472 5467 5460 5452 5444 5436 5428 5420 5413 5406 5399 5392 5387 5383 5380 5377 5376 5377 5379 5382 5385 5388 5390 5394 5397 5402 5409 5416 5422
5541 5534 5527 5522 5516 5511 5505 5500 5494 5488 5482 5477 5473 5468 5462 5455 5447 5439 5430 5422 5415 5407 5400 5394 5389 5384 5380 5377 5374 5373 5372 5373 5375 5380 5384 5389 5392 5397 5403 5408 5415 5420 5423
5525 5519 5514 5509 5505 5502 5498 5493 5486 5480 5475 5469 5463 5457 5450 5444 5435 5426 5418 5410 5402 5396 5390 5385 5382 5378 5375 5372 5370 5369 5369 5370 5374 5379 5383 5389 5395 5401 5408 5415 5420 5423 5425
5513 5509 5505 5501 5498 5495 5491 5485 5478 5473 5467 5460 5452 5445 5439 5430 5422 5414 5406 5399 5392 5387 5383 5379 5376 5373 5371 5368 5367 5367 5368 5370 5373 5378 5385 5391 5398 5405 5413 5418 5422 5425 5425
5503 5500 5498 5496 5492 5488 5483 5478 5472 5466 5459 5451 5442 5435 5427 5419 5411 5404 5397 5390 5385 5380 5377 5374 5370 5368 5366 5364 5363 5364 5366 5369 5374 5380 5387 5394 5401 5408 5414 5418 5421 5422 5422
5496 5495 5493 5490 5486 5481 5476 5472 5466 5460 5451 5443 5434 5425 5416 5408 5401 5395 5389 5384 5378 5374 5370 5367 5364 5362 5361 5359 5359 5360 5364 5368 5373 5379 5388 5395 5402 5408 5413 5416 5417 5418 5419
5491 5489 5487 5483 5479 5474 5469 5464 5459 5453 5445 5435 5425 5416 5408 5400 5393 5387 5383 5378 5373 5370 5366 5362 5358 5357 5356 5357 5359 5362 5365 5369 5374 5381 5387 5394 5400 5406 5411 5414 5415 5416 5416